Regional Weather Roundup
Issued by NWS Charleston, SC

Current Version | Previous Version | Graphics & Text | Print | Product List | Glossary On
Versions: 1 2 3 4 5 6 7 8 9 10 11 12 13 14 15 16 17 18 19 20 21 22 23 24 25 26 27 28 29 30 31 32 33 34 35 36 37 38 39 40 41 42 43 44 45 46 47 48 49 50
000
ASUS42 KCHS 022325
RWRCHS

REGIONAL WEATHER ROUNDUP
NATIONAL WEATHER SERVICE CHARLESTON SC
700 PM EDT TUE SEP 02 2014

NOTE: "FAIR" INDICATES FEW OR NO CLOUDS BELOW 12,000 FEET WITH NO
SIGNIFICANT WEATHER AND/OR OBSTRUCTIONS TO VISIBILITY.

NOT ALL STATIONS ARE QUALITY CONTROLLED BY THE NATIONAL
WEATHER SERVICE. USE DATA WITH CAUTION...ESPECIALLY
DEWPOINT OBSERVATIONS.

SCZ027-030-031-034>040-042>050-030000-
...SOUTH CAROLINA...

CITY           SKY/WX    TMP DP  RH WIND       PRES   REMARKS
N CHARLESTON   CLOUDY    84  76  76 S10       29.99F HX  93
WATERFRONT PRK   N/A     84 N/A N/A S10         N/A
FORT JOHNSON   NOT AVBL
MOUNT PLEASANT FAIR      82  73  74 S8        30.00F
JOHNS ISLAND   CLEAR     82  79  89 S8        30.00F HX  93
PINOPOLIS        N/A     81  72  74 CALM      29.92F
MONCKS CORNER    N/A     79  75  89 CALM      30.00S
SUMMERVILLE    LGT RAIN  75  73  94 CALM      30.02R
BEAUFORT MCAS  LGT RAIN  78  75  90 VRB3      30.01F
BEAUFORT ARPT  FAIR      79  75  89 W5        30.00S
HILTON HEAD IS MOCLDY    79  75  89 S3        30.02F
GEORGETOWN     NOT AVBL
WALTERBORO     CLOUDY    77 N/A N/A CALM      30.02R
ORANGEBURG     CLOUDY    76  72  87 W5        30.02S
BARNWELL       FAIR      75  72  88 W3        30.05R
AIKEN          TSTM      75  75 100 E3        30.08S
MANNING        FAIR      81  72  74 SW5       30.02R
KINGSTREE      NOT AVBL
COLUMBIA       TSTM      76  72  87 NE3       30.05R
SUMTER         PTCLDY    82  71  69 VRB7      30.01R
FLORENCE       CLOUDY    86  71  60 S8        29.99F HX  91
MYRTLE BEACH   PTCLDY    86  73  66 S12       30.00F HX  93
N MYRTLE BEACH PTCLDY    84  75  74 SW12      30.00F HX  92

$$

GAZ063-065-086>088-099>101-113>116-118-119-134-136>141-150-030000-
...GEORGIA...

CITY           SKY/WX    TMP DP  RH WIND       PRES   REMARKS
SAVANNAH ARPT  LGT RAIN  76  73  91 S7        30.01F
HUNTER AAF     LGT RAIN  75  75  99 CALM      30.00S
FORT STEWART   CLOUDY    74  72  93 SW1       30.01S
STATESBORO     NOT AVBL
SYLVANIA       LGT RAIN  75  74  95 W3        30.03F
CLAXTON        FAIR      77  77 100 CALM      30.02F
THOMSON        PTSUNNY   81  76  84 S9        30.05F
AUGUSTA-BUSH   CLOUDY    74  70  87 SW9       30.01F
AUGUSTA-DANIEL LGT RAIN  77  72  84 S7        30.02F
SWAINSBORO     MOCLDY    77  77 100 SE7       30.02F
VIDALIA        LGT RAIN  77  73  88 CALM      30.04S
ALMA           CLOUDY    75  73  93 SE3       30.02F
WAYCROSS       LGT RAIN  79  76  91 CALM      30.04R
JESUP            N/A     79  73  83 CALM      30.03S
BRUNSWICK      CLOUDY    77  73  88 CALM      30.04R
SAINT SIMONS   CLOUDY    79  78  97 CALM      30.02R

$$

SCZ027-028-034-036>038-045-046-048>050-GAZ119-141-030000-
...LAKE AND SUPPLEMENTAL COASTAL OBSERVATIONS...

STATION/POSITION TIME  TEMP    WIND        PRES    WAVE   SWELL
                       AIR SEA DIR/SP/G            HT/PER HT/PER/DIR
                 (UTC) (F)     (DEG/KT/KT) (MB)    (FT/S) (FT/S/D)
UPR LAKE MARION  NOT AVBL
WINYAH BAY       2300   84     210/  8     1016.0S
LAKE MURRAY      2300   77     140/ 17/ 21 1016.6R
ACE BASIN NERRS  2300   81        CALM     1016.0S
FORT PULASKI     2300   77     190/  2/  2 1016.5F
SAPELO ISLAND    2300   76      30/  4     1017.0S

$$

ANZ835-935-AMZ111-154-330-350-352-354-374-450-454-472-030000-
...C-MAN AND BUOY OBSERVATIONS...

STATION/POSITION TIME  TEMP    WIND        PRES    WAVE   SWELL
                       AIR SEA DIR/SP/G            HT/PER HT/PER/DIR
                 (UTC) (F)     (DEG/KT/KT) (MB)    (FT/S) (FT/S/D)
FOLLY BEACH CMAN 2300   83     200/ 12/ 14 1016.2F
BUOY 41004       2300   82 84  210/ 14/ 16 1016.4F   3/ 8   2/ 8
BUOY 41008       2300   83 85  150/  8/ 10 1016.6F   2/ 8   2/120/ 8
5E ST. MARYS GA  2300      85                N/A     2/13   2/ 80/13
FRYING PAN BUOY  NOT AVBL
BUOY 41025       2300   82     210/ 17/ 19 1015.3F   4/ 4   2/120/ 8
CAPE LOOKOUT NC  2300   82     220/ 12/ 15 1016.3R
BUOY 41002       2201   81 84  200/ 12/ 14 1018.4    3/12   3/ 80/12
BUOY 41010       2300   83 85  130/  8/ 10 1016.9F   4/10   3/ 60/10
BUOY 41012       NOT AVBL
ST AUGUSTINE FL  2300   82     130/ 11/ 12 1017.0R
CAPERS NEARSHORE 2200   83     230/ 16/ 16   N/A
FRIPP NEARSHORE  NOT AVBL


$$


USA.gov is the U.S. government's official web portal to all federal, state and local government web resources and services.